Regional Weather Roundup
Issued by NWS

Home | Current Version | Previous Version | Graphics & Text | Print | Product List | Glossary On
Versions: 1 2 3 4 5 6 7 8 9 10 11 12 13 14 15 16 17 18 19 20 21 22 23 24 25 26 27 28 29 30 31 32 33 34 35 36 37 38 39 40 41 42 43 44 45 46 47 48 49 50
000
ASUS43 KBIS 180720
RWRND

NORTH DAKOTA REGIONAL WEATHER ROUNDUP
NATIONAL WEATHER SERVICE BISMARCK ND
100 AM CST THU DEC 18 2014

NOTE: "FAIR" INDICATES FEW OR NO CLOUDS BELOW 12,000 FEET WITH NO
SIGNIFICANT WEATHER AND/OR OBSTRUCTIONS TO VISIBILITY.


NDZ001>003-009>011-017-180800-
NORTHWEST NORTH DAKOTA

CITY           SKY/WX    TMP DP  RH WIND       PRES   REMARKS
WILLISTON      CLOUDY    20  15  81 S8        30.05F WCI  10
MINOT          PTCLDY     6   2  83 SE5       30.12F WCI  -3
MINOT AFB      PTCLDY     2   0  93 SE7       30.12F WCI -11
$$

NDZ018>021-031>035-040>046-180800-
SOUTHWEST NORTH DAKOTA

CITY           SKY/WX    TMP DP  RH WIND       PRES   REMARKS
BISMARCK       CLOUDY    17  12  80 S12       30.15F WCI   4
DICKINSON      CLOUDY    20  16  84 S8        30.01S WCI  10
GARRISON         N/A     14  11  87 E7        30.10F WCI   4
HETTINGER ARPT CLOUDY    18  15  88 SE9       30.03F FOG     WCI   7
$$

NDZ004>008-012>016-024-026-027-054-180800-
NORTHEAST NORTH DAKOTA

CITY           SKY/WX    TMP DP  RH WIND       PRES   REMARKS
GRAND FORKS    PTCLDY     7   5  91 CALM      30.30F
GRND FRKS AFB  PTCLDY     4   3  97 S3        30.29F
DEVILS LAKE    PTCLDY     7  -2  66 SE6       30.19F WCI  -3
$$

NDZ022-023-025-028>030-036>039-047>053-180800-
SOUTHEAST NORTH DAKOTA

CITY           SKY/WX    TMP DP  RH WIND       PRES   REMARKS
FARGO          PTCLDY     9   4  80 E6        30.29F WCI  -1
JAMESTOWN      PTCLDY     8   5  87 SE6       30.22S WCI  -2
$$




USA.gov is the U.S. government's official web portal to all federal, state and local government web resources and services.